EHI
0 0 0 0 0 0 0 0 0 0 0 0 0 0 0 0 0 0 0 0 0 0 0 0 0 0 0 0 0 0 0 0 0 0 0 0 0 0 0 0 0 0 0
0 0 0 0 0 0 0 0 0 0 0 0 0 0 0 0 0 0 0 0 0 0 0 0 0 0 0 0 0 0 0 0 0 0 0 0 0 0 0 0 0 0 0
0 0 0 0 0 0 0 0 0 0 0 0 0 0 0 0 0 0 0 0 0 0 0 0 0 0 0 0 0 0 0 0 0 0 0 0 0 0 0 0 0 0 0
0 0 0 0 0 0 0 0 0 0 0 0 0 0 0 0 0 0 0 0 0 0 0 0 0 0 0 0 0 0 0 0 0 0 0 0 0 0 0 0 0 0 0
0 0 0 0 0 0 0 0 0 0 0 0 0 0 0 0 0 0 0 0 0 0 0 0 0 0 0 0 0 0 0 0 0 0 0 0 0 0 0 0 0 0 0
0 0 0 0 0 0 0 0 0 0 0 0 0 0 0 0 0 0 0 0 0 0 0 0 0 0 0 0 0 0 0 0 0 0 0 0 0 0 0 0 0 0 0
0 0 0 0 0 0 0 0 0 0 0 0 0 0 0 0 0 0 0 0 0 0 0 0 0 0 0 0 0 0 0 0 0 0 0 0 0 0 0 0 0 0 0
0 0 0 0 0 0 0 0 0 0 0 0 0 0 0 0 0 0 0 0 0 0 0 0 0 0 0 0 0 0 0 0 0 0 0 0 0 0 0 0 0 0 0
0 0 0 0 0 0 0 0 0 0 0 0 0 0 0 0 0 0 0 0 0 0 0 0 0 0 0 0 0 0 0 0 0 0 0 0 0 0 0 0 0 0 0
0 0 0 0 0 0 0 0 0 0 0 0 0 0 0 0 0 0 0 0 0 0 0 0 0 0 0 0 0 0 0 0 0 0 0 0 0 0 0 0 0 0 0
0 0 0 0 0 0 0 0 0 0 0 0 0 0 0 0 0 0 0 0 0 0 0 0 0 0 0 0 0 0 0 0 0 0 0 0 0 0 0 0 0 0 0
0 0 0 0 0 0 0 0 0 0 0 0 0 0 0 0 0 0 0 0 0 0 0 0 0 0 0 0 0 0 0 0 0 0 0 0 0 0 0 0 0 0 0
0 0 0 0 0 0 0 0 0 0 0 0 0 0 0 0 0 0 0 0 0 0 0 0 0 0 0 0 0 0 0 0 0 0 0 0 0 0 0 0 0 0 0
0 0 0 0 0 0 0 0 0 0 0 0 0 0 0 0 0 0 0 0 0 0 0 0 0 0 0 0 0 0 0 0 0 0 0 0 0 0 0 0 0 0 0
0 0 0 0 0 0 0 0 0 0 0 0 0 0 0 0 0 0 0 0 0 0 0 0 0 0 0 0 0 0 0 0 0 0 0 0 0 0 0 0 0 0 0
0 0 0 0 0 0 0 0 0 0 0 0 0 0 0 0 0 0 0 0 0 0 0 0 0 0 0 0 0 0 0 0 0 0 0 0 0 0 0 0 0 0 0
0 0 0 0 0 0 0 0 0 0 0 0 0 0 0 0 0 0 0 0 0 0 0 0 0 0 0 0 0 0 0 0 0 0 0 0 0 0 0 0 0 0 0
0 0 0 0 0 0 0 0 0 0 0 0 0 0 0 0 0 0 0 0 0 0 0 0 0 0 0 0 0 0 0 0 0 0 0 0 0 0 0 0 0 0 0
0 0 0 0 0 0 0 0 0 0 0 0 0 0 0 0 0 0 0 0 0 0 0 0 0 0 0 0 0 0 0 0 0 0 0 0 0 0 0 0 0 0 0
0 0 0 0 0 0 0 0 0 0 0 0 0 0 0 0 0 0 0 0 0 0 0 0 0 0 0 0 0 0 0 0 0 0 0 0 0 0 0 0 0 0 0
0 0 0 0 0 0 0 0 0 0 0 0 0 0 0 0 0 0 0 0 0 0 0 0 0 0 0 0 0 0 0 0 0 0 0 0 0 0 0 0 0 0 0
0 0 0 0 0 0 0 0 0 0 0 0 0 0 0 0 0 0 0 0 0 0 0 0 0 0 0 0 0 0 0 0 0 0 0 0 0 0 0 0 0 0 0
0 0 0 0 0 0 0 0 0 0 0 0 0 0 0 0 0 0 0 0 0 0 0 0 0 0 0 0 0 0 0 0 0 0 0 0 0 0 0 0 0 0 0
0 0 0 0 0 0 0 0 0 0 0 0 0 0 0 0 0 0 0 0 0 0 0 0 0 0 0 0 0 0 0 0 0 0 0 0 0 0 0 0 0 0 0
0 0 0 0 0 0 0 0 0 0 0 0 0 0 0 0 0 0 0 0 0 0 0 0 0 0 0 0 0 0 0 0 0 0 0 0 0 0 0 0 0 0 0
0 0 0 0 0 0 0 0 0 0 0 0 0 0 0 0 0 0 0 0 0 0 0 0 0 0 0 0 0 0 0 0 0 0 0 0 0 0 0 0 0 0 0
Wind_Speed
9 12 18 16 14 13 11 11 10 10 10 10 11 11 11 12 12 12 13 13 13 13 13 14 14 15 15 15 15 15 15 15 16 16 17 17 16 16 16 16 14 10 17
13 14 18 17 15 14 12 11 11 10 10 10 10 10 11 11 11 11 12 12 12 13 13 13 13 14 14 14 14 14 14 13 13 14 15 14 15 16 16 16 15 10 15
14 15 16 17 16 14 13 12 11 10 10 9 9 9 9 10 10 10 11 11 12 12 12 12 13 13 13 13 13 13 12 12 11 13 13 7 9 15 15 14 14 15 14
14 14 14 18 16 15 14 12 11 11 10 9 9 9 9 9 9 9 10 10 11 11 11 11 11 12 12 12 12 11 11 10 11 13 7 7 7 12 13 13 13 14 14
12 13 15 19 17 16 15 13 12 11 10 10 9 8 8 8 9 9 9 9 9 10 10 10 10 10 10 10 10 10 9 9 10 9 5 6 5 10 11 11 12 12 12
11 12 15 19 17 16 15 13 12 11 10 9 9 8 8 8 8 8 7 7 8 8 8 9 9 9 9 9 9 9 8 9 8 5 5 6 5 8 10 10 10 10 10
11 12 15 19 17 16 15 14 13 11 10 9 8 8 7 7 7 7 6 6 6 6 6 7 7 7 7 7 7 7 7 9 5 4 4 5 5 7 8 8 8 8 8
10 12 15 18 17 16 15 14 13 12 11 9 9 8 7 7 6 6 5 4 4 4 4 5 5 5 5 6 6 6 7 8 6 4 3 4 5 6 6 6 6 6 6
10 11 12 11 12 15 15 14 13 12 11 10 9 8 7 7 6 6 5 4 3 2 2 2 2 3 3 3 3 4 5 7 5 3 2 2 3 4 4 4 4 4 4
8 10 13 10 9 8 9 12 13 12 11 10 9 8 7 6 6 6 6 6 4 3 2 2 2 2 3 3 3 3 5 6 5 3 1 1 1 4 5 5 4 5 5
6 7 11 11 10 9 8 11 10 11 10 9 8 8 7 4 5 6 8 8 7 5 5 5 5 5 6 6 7 7 5 3 5 3 2 3 5 7 8 8 8 8 8
7 7 7 10 11 9 8 8 6 6 6 5 5 6 4 4 3 4 8 9 8 7 7 8 8 7 7 4 7 8 3 6 5 3 4 9 9 10 11 11 11 11 11
9 7 6 7 10 9 6 6 4 4 4 5 6 6 5 4 2 3 3 4 5 6 5 6 6 4 5 4 3 4 5 4 2 3 4 11 12 13 14 14 14 14 14
9 9 7 6 7 8 7 5 5 4 4 4 5 5 4 3 2 2 2 3 4 3 5 4 3 5 6 6 5 5 5 4 3 3 5 13 14 15 16 17 17 17 17
8 9 7 7 6 6 6 4 4 4 5 5 4 4 4 3 3 3 2 3 3 3 3 4 4 5 5 5 5 6 6 6 6 5 5 14 16 18 19 20 20 20 20
7 8 7 7 7 6 5 4 3 3 4 4 4 5 4 3 3 3 3 3 3 3 3 3 4 4 4 4 4 5 6 6 7 7 6 9 17 19 21 22 22 23 23
6 7 7 7 6 7 6 5 3 3 3 3 3 5 5 4 4 3 3 3 3 3 4 3 4 3 3 4 5 6 6 7 7 7 7 6 7 16 21 23 24 24 25
6 6 6 5 5 6 5 4 3 2 3 3 2 3 4 5 4 3 3 3 3 3 2 2 3 3 4 4 5 5 5 5 7 7 7 7 6 7 13 22 24 24 25
6 7 7 6 4 4 4 3 2 1 1 1 1 1 2 3 3 3 3 3 3 3 3 3 3 3 4 5 5 5 5 5 6 7 8 8 8 7 7 14 23 24 25
7 8 7 6 4 5 3 3 2 2 1 0 0 1 1 2 3 3 2 3 3 3 3 3 4 4 4 5 6 6 6 6 7 8 10 8 7 8 8 8 9 14 23
7 7 7 6 5 4 3 2 2 2 1 1 1 1 1 2 2 2 1 2 3 3 4 4 3 4 4 3 3 5 6 9 11 10 9 8 8 9 8 8 6 6 8
7 7 7 6 5 5 3 3 2 2 1 1 1 0 1 1 1 1 2 2 3 3 4 4 4 3 3 2 2 3 6 6 5 6 4 5 7 6 6 8 7 7 6
6 6 6 6 6 6 5 3 2 1 0 0 0 0 1 0 1 1 2 2 3 3 3 4 4 4 4 4 3 4 3 5 5 4 6 5 5 4 5 6 8 8 8
6 6 7 7 6 5 4 3 2 2 1 1 1 1 1 2 1 0 1 2 3 3 4 4 4 4 4 4 4 4 6 6 4 6 4 4 5 6 7 7 7 8 9
6 5 6 7 6 5 4 3 3 3 2 1 1 1 2 1 2 2 2 2 3 3 4 5 5 4 4 5 5 4 5 5 6 8 10 6 6 6 8 8 7 7 9
5 5 5 6 5 4 4 4 4 4 3 3 3 3 2 2 1 1 1 2 3 4 5 5 5 6 5 6 5 5 5 5 6 7 10 9 9 6 7 6 6 6 7
Wind_Direction
135 148 158 155 151 147 140 133 123 113 104 97 92 88 84 79 74 73 71 67 64 62 61 59 57 58 59 59 60 60 60 59 56 56 56 57 59 59 58 56 56 48 53
139 148 159 157 154 151 145 136 129 120 111 104 97 91 87 83 78 73 71 68 65 63 62 61 58 58 58 59 60 61 61 59 56 56 56 50 56 59 58 55 56 56 56
137 146 160 159 157 154 149 142 136 129 121 112 105 98 92 88 82 77 74 70 67 64 63 63 60 59 60 60 59 59 59 56 48 55 56 39 43 56 57 55 53 55 56
140 146 160 160 160 157 152 148 144 137 131 122 115 107 101 95 89 83 77 73 69 65 63 64 63 61 60 60 59 57 55 49 40 57 49 38 33 54 54 52 50 51 51
141 149 159 161 162 161 156 154 150 144 138 131 122 116 110 102 94 87 80 75 71 67 64 62 63 61 59 58 57 53 45 30 25 54 51 45 28 51 55 52 49 49 47
144 148 155 163 165 163 160 158 155 151 146 140 134 127 120 111 102 94 86 80 74 69 65 62 59 58 58 56 53 47 31 14 29 39 47 47 25 44 53 52 48 46 44
149 146 154 165 167 166 164 163 161 158 155 151 146 141 133 124 116 109 101 91 81 74 65 60 57 54 52 50 47 39 22 3 19 32 42 56 24 36 43 42 40 39 37
147 143 153 167 169 169 169 168 166 165 164 161 157 155 148 141 134 131 124 112 96 81 67 57 51 47 42 41 37 28 9 353 349 6 35 63 28 20 32 30 24 24 26
143 141 149 165 170 173 173 173 171 171 171 171 169 167 162 159 160 159 154 149 140 119 89 52 33 24 17 14 12 3 346 330 322 322 343 64 10 347 356 1 352 349 352
142 146 151 163 168 170 173 176 175 176 179 179 177 173 171 177 186 188 182 182 182 188 205 234 272 290 298 297 295 297 300 305 283 270 265 174 266 299 302 300 300 301 302
151 156 155 164 167 169 173 177 175 179 184 181 178 172 171 192 197 201 202 189 196 213 230 240 251 260 265 263 256 253 268 256 259 246 244 227 249 269 278 280 278 276 278
173 174 167 164 164 168 175 166 172 177 177 182 181 175 184 215 207 170 171 184 204 224 239 248 251 259 259 249 239 237 239 242 248 235 228 233 246 259 266 270 272 270 268
173 173 176 166 161 164 163 158 168 173 172 187 197 183 187 204 180 150 163 181 207 222 235 243 240 234 231 229 199 206 229 242 245 254 245 243 250 257 262 265 266 267 266
161 166 174 165 154 159 159 161 166 172 171 179 195 194 182 182 183 199 203 192 195 198 208 217 215 234 234 228 220 225 239 239 231 232 243 251 254 258 262 264 263 263 263
151 159 169 163 157 156 156 165 170 174 172 178 181 194 186 170 183 208 223 220 219 216 207 210 226 247 253 245 232 229 236 242 243 237 240 249 253 257 261 263 263 261 261
146 153 160 164 161 155 160 167 173 180 169 176 173 184 195 188 193 206 226 231 228 229 236 232 239 250 256 255 254 249 245 242 241 239 233 245 250 254 258 261 263 262 261
140 142 148 161 163 159 167 179 176 181 172 176 178 184 194 201 210 215 223 237 237 234 236 243 258 273 274 269 265 263 258 251 247 244 242 234 241 250 255 259 261 263 263
119 125 125 132 154 157 160 170 175 182 174 166 178 191 201 206 212 225 234 242 248 251 245 242 246 267 272 267 260 257 255 253 251 247 244 241 235 240 252 258 262 264 265
106 108 110 116 137 138 139 140 143 128 115 121 166 206 206 215 220 228 236 244 256 258 251 245 244 244 267 277 277 271 266 263 261 258 252 245 240 238 236 255 262 266 268
89 100 108 113 117 113 111 119 104 80 51 80 216 248 235 235 236 237 247 264 271 271 266 255 254 257 253 258 275 278 271 266 263 259 256 252 245 241 238 241 251 260 264
85 97 106 111 107 103 103 110 114 133 175 196 226 281 288 265 255 242 246 269 277 273 267 262 263 274 279 278 298 297 278 257 253 252 248 245 243 240 237 240 240 238 256
99 102 105 107 105 98 94 92 91 95 84 82 44 34 325 310 287 246 239 251 257 262 273 272 265 268 273 266 258 309 311 309 279 260 257 245 243 239 241 243 242 240 235
97 103 104 103 99 97 100 96 84 78 41 63 133 149 266 291 333 301 271 265 270 261 260 261 255 254 264 267 218 214 262 277 311 296 279 274 267 260 254 252 248 243 239
100 99 103 105 103 104 106 100 111 102 93 103 111 182 246 191 170 258 296 292 284 276 270 265 253 243 244 259 262 234 229 234 270 296 287 286 295 283 271 263 255 249 243
108 107 108 106 104 102 97 90 70 61 48 44 20 13 345 297 175 195 220 264 277 272 269 270 274 264 247 244 244 250 260 260 245 261 280 273 264 257 260 260 257 254 249
120 117 117 112 109 106 99 96 82 64 27 22 12 6 345 327 310 269 217 256 268 266 263 262 261 261 256 255 252 245 244 247 251 254 272 278 276 268 265 269 271 269 264